map of BWN home
BWN - Airport
Location
City:  Bandar Seri Begwan, Brunei Darussalam
Name:Bandar Seri Begwan International Airport
ICAO:WBSB
IATA:BWN

Details
Type:Airport (Aerodrome, Airfield)
Use:Public/Civil, International (customs port of entry)
Latitude:456'39"N (4.944200)
Longitude:11455'42"E (114.928353)
Datum:WGS 1984
Elevation:73 ft (22 m)
Variation:0.20W (WMM2015 magnetic declination)
-0.08 annual change
Runways:1
Longest:12000 × 150 ft (3658 × 45.5 m), paved

Time
Time Zone:UTC+8
Local Time:

Weather
METAR:WBSB 180830Z 29003KT 9000 FEW014 FEW015CB SCT140 BKN280 27/25 Q1008 RESHRA TEMPO 7000 SHRA
TAF:WBSB 172250Z 1800/1906 20003KT 9999 FEW014
BECMG 1803/1805 22011KT SCT015 FEW016CB
TEMPO 1804/1806 22017KT 6000 -SHRA

Related Locations
Nearby:
Farthest:SWUY: 12431 mi / 20006 km
Coari [Urucu], AM, BR

Find:

   beyond  
but within

Other Information
Maps:
NOTAMs:
Links:
Sources:

  
flag of Brunei Darussalam   

Sectional Chart

Flight Planning
at skyvector.com

Satellite Image

Google Maps Satellite view

 

Copyright © 2004-2017 Karl L. Swartz. All rights reserved.
The Great Circle Mapper name and logo are trademarks of the Great Circle Mapper.
All other trademarks mentioned herein belong to their respective owners.
Please see credits for attibutions and further copyright information.

  Follow gcmap on Facebook Follow gcmap on Twitter Follow gcmap on Google+ GCmap on LinkedIn

hCard Microformat

Geo Microformat